CAPE
3809 2356 2419 2813 1913 1764 1455 1621 1759 2305 2509 2660 2674 2881 2769 2649 2256 1739 1551 876 494 58
3667 3487 2300 3333 3196 2102 2851 1737 1832 1992 2521 2496 2683 2794 2892 2525 2378 1488 1526 851 830 307
3316 3751 3570 3724 3772 3336 2836 2787 2282 2181 2333 2466 2710 3006 3067 2545 2394 2051 1370 771 540 754
2857 3023 3321 3482 3680 3756 3082 3571 3013 3072 2550 2399 2801 3062 3194 3077 2413 2358 1929 1362 729 873
3443 3308 3041 3425 3498 3710 3723 3456 3790 3340 3251 2792 2659 2986 3010 3008 2399 2489 2232 1981 1515 889
3006 2878 3407 3640 3522 3691 3779 3844 2722 3498 3946 3357 3026 3288 3016 2919 2978 2625 2557 2289 2047 1490
3397 3367 3377 3631 3635 3695 3824 3900 3854 3700 4175 3794 3190 2984 2699 2720 2940 2997 2637 2590 2331 1922
3466 3647 3655 3701 3699 3705 3909 3798 3987 3954 4050 4097 3123 2551 3566 3408 3076 3428 2937 2739 2589 2282
3641 3886 3808 3817 3804 3933 3892 3910 3974 3903 4053 4080 3067 1998 1807 2615 3219 3733 3771 3240 2791 2536
3754 3895 3949 3989 4034 3969 3915 3973 4032 3987 4011 4151 4043 2025 1711 1660 2947 3607 3635 3449 3220 2739
3732 3928 4155 4188 4113 4086 4041 3974 4092 4037 4095 4145 4075 2592 1824 1523 2767 3683 3765 3584 3556 3885
3670 3410 3551 4120 4098 4067 3845 3665 3693 3554 4120 4375 4226 2707 2318 1735 2572 2936 3985 3671 3512 3594
3786 3781 3705 4092 4230 4088 3938 3556 3107 3511 3910 3417 4265 3137 2410 2069 2261 2849 2715 3804 3971 2227
3875 4040 4038 4341 4302 4240 4067 3624 4045 3715 3696 4075 3877 3799 2662 2107 2631 2757 2788 2551 2831 2827
CIN
-0 -9 -5 -0 -0 -1 -0 -0 -0 -0 -0 -0 -0 -0 -0 -0 -0 -16 -25 -79 -92 -99
-10 -7 -17 -0 -0 -3 -0 -0 -0 -3 -2 -0 -1 -1 -0 -1 -0 -34 -44 -90 -93 -113
-39 -23 -22 -1 -1 -5 -2 -4 -0 -2 -1 -0 -0 -0 -1 -0 -1 -16 -52 -87 -118 -94
-85 -67 -49 -22 -18 -11 -18 -0 -10 -0 -5 -0 -0 -0 -0 -1 -0 -12 -30 -60 -110 -104
-83 -78 -70 -49 -35 -27 -18 -15 -4 -5 -2 -2 -0 -0 -1 -3 -0 -9 -24 -31 -48 -114
-128 -130 -78 -64 -68 -45 -41 -27 -35 -8 -0 -2 -0 -0 -1 -5 -3 -9 -21 -21 -27 -59
-160 -149 -137 -107 -98 -69 -51 -33 -27 -21 -4 -3 -3 -0 -17 -24 -6 -3 -21 -20 -19 -34
-212 -178 -146 -130 -127 -106 -59 -57 -41 -28 -16 -9 -10 -24 -0 -10 -22 -0 -13 -21 -22 -22
-213 -172 -175 -141 -130 -100 -81 -77 -63 -46 -27 -16 -23 -111 -145 -92 -31 -4 -0 -9 -21 -18
-199 -203 -191 -142 -111 -121 -109 -75 -75 -64 -43 -24 -28 -143 -186 -240 -70 -24 -7 -4 -2 -10
-222 -207 -155 -135 -158 -153 -124 -98 -69 -66 -54 -35 -36 -163 -207 -227 -106 -8 -4 -1 -0 -0
-274 -262 -210 -172 -197 -165 -137 -126 -91 -62 -32 -21 -27 -175 -227 -232 -123 -76 -0 -11 -3 -0
-275 -252 -254 -190 -143 -137 -125 -150 -150 -105 -67 -98 -23 -59 -142 -215 -128 -73 -71 -1 -0 -132
-297 -277 -237 -162 -158 -139 -129 -125 -104 -110 -116 -69 -76 -66 -158 -219 -141 -71 -69 -58 -37 -56
Wind_Speed
7 6 6 8 9 11 10 9 8 14 14 15 14 10 7 9 11 13 13 15 15 nan
9 7 8 6 12 11 12 12 12 12 13 17 15 10 9 6 8 9 12 13 14 13
13 13 11 13 12 13 15 15 16 16 15 17 18 12 10 5 8 8 9 11 14 15
12 12 12 11 13 14 17 19 18 21 18 17 17 17 9 4 6 9 10 11 14 17
16 14 12 10 11 15 17 19 21 23 23 20 17 18 11 6 5 9 12 14 16 18
17 16 14 15 13 13 15 18 20 21 23 22 19 16 14 6 5 7 11 14 18 15
17 15 13 15 17 17 16 18 19 19 18 19 20 17 15 10 7 7 10 12 16 17
17 14 12 15 17 13 14 18 22 23 24 21 18 18 16 14 10 10 10 12 16 19
18 20 16 14 16 15 15 20 25 28 30 28 20 19 21 16 15 12 12 13 16 17
20 19 20 17 18 16 18 21 23 26 29 29 25 22 24 24 18 17 14 13 16 20
16 20 25 25 18 19 20 21 21 24 25 24 21 26 27 26 20 18 18 18 20 22
20 20 25 27 25 21 22 23 19 18 21 17 15 24 32 33 27 22 22 21 23 25
26 26 29 28 32 32 29 28 28 23 25 24 19 26 24 27 27 26 25 21 21 29
32 26 28 33 36 39 38 37 37 36 33 34 36 31 31 33 31 30 32 34 34 30
Wind_Direction
296 266 265 286 276 284 280 293 318 323 338 347 357 359 4 29 40 31 31 23 30 nan
281 296 287 273 283 279 286 289 303 315 325 331 341 352 344 45 24 28 28 21 21 24
291 292 294 289 301 300 294 302 301 309 314 321 328 333 341 352 13 14 15 25 12 20
322 313 296 298 302 300 294 300 308 303 306 312 318 322 326 355 9 9 13 21 10 13
334 331 333 314 302 291 297 299 300 300 302 303 312 316 319 332 360 356 5 6 6 3
345 348 351 338 335 327 323 321 330 325 313 305 304 304 304 311 337 351 3 358 353 350
346 350 345 341 351 357 350 347 348 343 325 313 303 299 303 312 315 326 351 349 346 344
332 326 317 334 351 358 2 2 2 355 349 333 309 300 310 308 306 309 326 342 342 339
310 321 320 318 325 326 343 352 351 355 356 349 336 332 314 305 302 306 319 325 325 324
298 322 319 295 298 311 329 328 340 346 347 355 349 332 327 321 308 303 298 304 302 309
333 322 310 299 307 314 305 318 319 323 334 333 342 328 321 319 312 292 296 291 298 303
316 308 307 307 312 288 287 289 292 292 304 317 324 313 317 311 311 311 304 306 297 300
293 294 302 296 286 289 277 282 280 289 291 303 296 278 288 301 295 302 307 307 300 302
286 283 286 279 276 281 277 274 283 287 287 286 294 286 295 303 293 280 290 292 291 290